Weather History for La Crosse, WI

Change the Weather History Date:

Monday, August 26, 2013

  Actual Average Record
Temperature  
Mean Temperature 87 °F 70 °F  
Max Temperature 97 °F 80 °F 97 °F (2013)
Min Temperature 76 °F 60 °F 41 °F (1934)
Degree Days  
Heating Degree Days 0 1  
Month to date heating degree days 2 6  
Since 1 June heating degree days 58  
Since 1 July heating degree days 14 11  
Cooling Degree Days 22 6  
Month to date cooling degree days 172 188  
Year to date cooling degree days 697 675  
Since 1 June cooling degree days 637  
Growing Degree Days 36 (Base 50)    
Moisture  
Dew Point 71 °F    
Average Humidity 64    
Maximum Humidity 79    
Minimum Humidity 48    
Precipitation  
Precipitation 0.00 in 0.13 in 2.16 in (1959)
Month to date precipitation 1.04 3.64  
Year to date precipitation 27.15 23.31  
Snow  
Snow 0.00 in 0.00 in 0.00 in (2002)
Month to date snowfall 0.0 0.0  
Since 1 June snowfall T  
Since 1 July snowfall T 0.0  
Snow Depth 0.00 in    
Sea Level Pressure  
Sea Level Pressure 29.95 in    
Wind  
Wind Speed 9 mph (SSE)    
Max Wind Speed 17 mph    
Max Gust Speed 22 mph    
Visibility 10 miles    
Events      
T = Trace of Precipitation, MM = Missing Value Source: NWS Daily Summary

Daily Weather History Graph

Daily Weather History Graph

Search for Another Location

Airport:

Trip Planner

Search our weather history database for the weather conditions in past years. The results will help you decide how hot, cold, wet, or windy it might be!

Date:

Astronomy

Aug. 26, 2013 Rise Set
Actual Time 6:21 AM CDT 7:50 PM CDT
Civil Twilight 5:51 AM CDT 8:20 PM CDT
Nautical Twilight 5:15 AM CDT 8:57 PM CDT
Astronomical Twilight 4:36 AM CDT 9:35 PM CDT
Moon 10:47 PM CDT (8/26) 12:37 PM CDT (8/26)
Length of Visible Light 14h 28m
Length of Day
13h 28m
Waning Gibbous, 66% of the Moon is Illuminated
Aug 26
Waning Gibbous
Aug 28
Last Quarter
Sep 5
New
Sep 12
First Quarter
Sep 19
Full

Hourly Weather History & Observations

Time (CDT) Temp. Heat Index Dew Point Humidity Pressure Visibility Wind Dir Wind Speed Gust Speed Precip Events Conditions
12:53 AM 81.0 °F 82.7 °F 64.9 °F 58% 29.99 in 10.0 mi SSE 6.9 mph - N/A   Clear
1:53 AM 79.0 °F - 64.9 °F 62% 29.99 in 10.0 mi SE 5.8 mph - N/A   Clear
2:53 AM 78.1 °F - 64.9 °F 64% 29.98 in 10.0 mi SE 6.9 mph - N/A   Overcast
3:53 AM 77.0 °F - 66.0 °F 69% 30.00 in 10.0 mi SSE 5.8 mph - N/A   Partly Cloudy
4:53 AM 77.0 °F - 66.9 °F 71% 29.99 in 10.0 mi ESE 6.9 mph - N/A   Clear
5:53 AM 77.0 °F - 66.9 °F 71% 30.00 in 10.0 mi ESE 5.8 mph - N/A   Clear
6:53 AM 75.9 °F - 68.0 °F 76% 30.01 in 10.0 mi SSE 9.2 mph - N/A   Clear
7:53 AM 78.1 °F - 68.0 °F 71% 30.02 in 10.0 mi South 6.9 mph - N/A   Clear
8:53 AM 81.0 °F 84.1 °F 69.1 °F 67% 30.01 in 10.0 mi South 10.4 mph - N/A   Clear
9:53 AM 81.0 °F 84.1 °F 69.1 °F 67% 30.02 in 10.0 mi SSE 5.8 mph - N/A   Mostly Cloudy
10:53 AM 84.9 °F 89.4 °F 70.0 °F 61% 30.01 in 10.0 mi SSE 5.8 mph - N/A   Clear
11:53 AM 88.0 °F 93.8 °F 71.1 °F 57% 29.99 in 10.0 mi SE 8.1 mph - N/A   Clear
12:53 PM 91.0 °F 98.2 °F 72.0 °F 53% 29.96 in 10.0 mi South 9.2 mph - N/A   Clear
1:53 PM 93.0 °F 101.9 °F 73.0 °F 52% 29.94 in 10.0 mi South 12.7 mph - N/A   Clear
2:53 PM 95.0 °F 105.2 °F 73.9 °F 50% 29.92 in 10.0 mi South 13.8 mph - N/A   Clear
3:53 PM 96.1 °F 105.6 °F 73.0 °F 47% 29.91 in 10.0 mi SSW 12.7 mph - N/A   Clear
4:53 PM 93.0 °F 103.2 °F 73.9 °F 54% 29.90 in 10.0 mi SSW 12.7 mph - N/A   Clear
5:53 PM 93.0 °F 103.2 °F 73.9 °F 54% 29.89 in 10.0 mi SSW 12.7 mph - N/A   Clear
6:53 PM 91.0 °F 101.6 °F 75.0 °F 59% 29.86 in 10.0 mi SSW 12.7 mph - N/A   Clear
7:53 PM 87.1 °F 96.3 °F 75.0 °F 67% 29.88 in 10.0 mi SSE 4.6 mph - N/A   Clear
8:53 PM 86.0 °F 93.8 °F 73.9 °F 67% 29.88 in 10.0 mi South 6.9 mph - N/A   Clear
9:53 PM 84.9 °F 93.3 °F 75.0 °F 72% 29.88 in 10.0 mi South 6.9 mph - N/A   Clear
10:53 PM 84.0 °F 91.2 °F 73.9 °F 72% 29.87 in 10.0 mi South 10.4 mph - N/A   Clear
11:53 PM 84.0 °F 90.2 °F 73.0 °F 69% 29.87 in 10.0 mi South 6.9 mph - N/A   Clear